Temperature
25 23 23 23 24 25 25 24 24 24 25 24 23 22 22 21 21 21 21 21 21 21 22 21 21 21 21 21 20 20 20 20 19 19 19 19 19 19 19 19 18 18 18 18
23 24 24 25 25 25 24 24 24 24 25 24 23 22 22 21 21 21 21 21 21 21 21 22 21 21 21 21 20 20 20 20 20 20 19 19 19 19 19 19 18 18 18 18
25 25 25 25 25 25 24 24 24 24 24 23 23 22 22 22 22 22 21 22 22 22 22 22 22 21 21 21 21 20 20 20 20 20 19 19 19 19 19 19 19 18 18 18
24 24 26 26 25 25 24 25 25 25 23 21 23 21 22 21 21 21 21 21 21 22 22 22 22 22 22 21 21 21 20 20 20 20 19 19 19 19 19 19 19 19 18 18
24 25 25 25 26 25 25 24 24 24 22 21 21 21 21 21 21 21 21 22 22 22 22 22 22 22 22 22 21 21 21 20 20 20 20 19 19 19 19 19 19 19 19 18
24 25 25 25 25 25 25 23 22 20 20 21 21 21 21 20 21 21 21 22 22 23 23 23 23 22 22 22 21 21 21 20 20 20 20 20 19 19 19 19 19 19 19 19
24 24 25 25 25 25 23 22 21 22 20 21 21 21 21 22 21 21 22 22 23 23 23 23 22 22 22 22 22 21 21 21 20 20 20 20 20 19 19 19 19 19 19 19
23 23 24 24 25 24 23 22 21 22 21 20 20 21 21 22 22 23 23 23 23 23 23 23 23 23 22 22 22 21 21 21 21 20 20 20 20 19 19 19 19 19 19 19
22 23 24 24 24 24 23 20 20 19 20 20 20 20 21 22 22 22 22 22 22 23 23 23 23 23 23 22 22 22 21 21 21 20 20 20 20 19 19 19 19 19 19 18
22 23 23 24 24 23 22 19 18 19 20 21 21 21 21 22 21 21 21 21 22 23 23 23 23 23 23 23 22 22 21 21 21 20 20 20 20 19 19 19 19 19 19 18
21 22 23 23 23 23 22 20 18 17 18 19 21 21 22 21 21 20 20 22 22 23 23 23 23 23 23 22 22 22 21 21 21 20 20 20 20 20 19 19 19 19 19 18
19 19 20 21 22 22 22 20 18 20 19 17 19 20 22 21 20 20 21 22 22 23 23 23 23 23 22 22 22 22 21 21 21 20 20 20 20 20 19 19 19 19 18 18
19 19 20 21 22 22 22 20 18 17 16 16 19 21 21 20 20 21 21 22 22 22 23 23 22 22 22 22 22 21 21 21 21 20 20 20 20 19 19 19 19 19 18 18
19 18 19 21 21 21 21 21 19 18 18 18 18 20 20 20 20 20 21 21 22 22 22 22 22 22 22 22 22 21 21 21 21 21 20 20 20 20 19 19 19 19 18 18
18 19 19 20 21 21 22 22 20 20 19 19 20 20 20 20 20 20 21 21 21 21 22 22 22 22 22 22 21 21 21 21 21 21 20 20 20 20 19 19 19 18 18 18
16 18 19 20 21 21 22 22 21 21 20 20 20 20 20 20 20 20 20 21 21 21 21 22 22 22 22 21 21 21 21 21 20 20 20 20 20 19 19 19 19 18 18 18
15 17 18 19 19 21 21 21 21 21 20 20 20 20 19 19 19 20 20 21 21 21 22 22 22 22 21 21 21 21 21 20 20 20 20 20 19 19 19 18 18 18 18 18
15 15 15 16 19 20 20 20 21 20 20 19 19 19 19 19 20 21 21 21 21 21 22 22 22 21 21 21 21 21 20 20 20 20 19 19 19 19 18 18 18 18 18 17
14 15 14 15 18 19 20 20 20 20 19 19 18 19 19 20 20 20 21 21 21 21 22 22 22 21 21 21 21 20 20 20 20 20 19 19 18 18 18 18 18 17 17 17
13 14 15 15 18 19 20 20 20 20 19 19 18 18 18 19 18 19 21 21 21 21 21 21 22 21 21 21 20 20 20 20 19 19 19 18 18 18 18 18 17 17 17 17
15 14 15 16 17 17 18 19 20 20 19 19 19 18 18 18 19 20 20 20 20 21 21 21 21 21 20 20 20 20 19 19 19 19 18 18 18 17 17 17 17 17 16 16
15 15 15 14 17 17 17 17 18 18 18 19 19 19 19 19 19 20 20 20 20 20 20 21 20 20 20 20 19 19 19 19 19 18 18 18 17 17 17 17 16 16 16 16
13 14 13 14 15 16 16 17 18 18 18 18 18 19 19 19 19 19 19 19 19 19 19 20 20 20 19 19 19 19 19 19 18 18 18 17 17 17 16 16 16 16 15 15
13 13 12 13 14 15 16 17 17 18 18 18 18 19 19 19 18 18 18 18 19 19 19 19 19 19 19 18 18 18 18 18 18 17 17 17 17 16 16 16 16 15 15 15
13 13 12 13 14 15 17 17 17 17 18 18 18 18 18 18 18 18 18 18 18 18 18 18 18 18 18 18 18 18 18 17 17 17 17 16 16 16 16 15 15 15 15 14
12 12 13 13 14 14 16 17 17 17 17 17 17 17 18 18 18 18 18 18 18 17 17 17 18 18 18 17 17 17 17 17 16 16 16 16 16 15 15 15 14 14 14 14
Wind_Speed
3 4 2 5 6 4 3 3 3 4 1 3 3 2 4 7 7 7 7 7 8 8 5 5 5 6 5 5 4 4 4 4 4 3 2 2 1 0 0 0 1 1 1 2
5 2 6 3 3 3 2 2 3 4 2 3 2 1 3 6 8 9 9 9 9 7 5 6 5 6 6 6 6 5 5 4 4 3 2 2 2 1 1 0 1 0 1 2
4 5 2 3 2 2 2 3 3 2 3 4 3 4 2 3 3 4 5 6 7 9 9 7 7 7 7 7 8 7 6 5 4 4 3 2 2 2 1 1 1 1 1 1
4 4 1 1 1 3 3 3 3 1 3 1 2 2 6 4 3 5 7 7 8 8 8 8 8 8 8 8 7 6 6 5 5 5 4 4 3 2 2 1 1 1 0 1
4 2 1 2 4 4 4 1 3 2 3 2 3 2 7 1 4 8 9 9 9 9 10 10 10 9 8 7 6 6 5 4 4 5 5 4 3 2 1 0 0 1 1 0
5 2 3 4 2 2 3 5 7 6 5 1 3 3 5 4 7 6 8 9 8 9 9 9 8 7 7 6 6 6 6 5 4 5 5 5 5 4 3 2 1 1 1 0
4 4 2 1 2 3 5 6 4 5 4 4 2 2 7 7 6 6 7 8 7 7 8 7 8 8 8 7 7 7 6 5 5 5 5 5 5 5 5 4 3 3 2 2
1 5 3 1 4 4 3 7 7 5 4 4 2 4 7 5 4 4 4 5 6 6 7 8 9 9 8 8 8 7 7 7 6 6 5 5 5 4 4 4 4 4 3 3
5 5 4 1 1 6 5 3 5 7 3 0 5 6 7 2 3 1 2 3 5 6 7 8 8 8 8 9 9 9 8 7 6 6 5 4 4 4 4 4 3 3 3 3
7 3 4 3 4 4 5 8 6 6 5 2 5 5 5 6 4 2 1 3 4 5 5 6 7 7 7 8 7 7 7 7 6 5 5 5 4 4 4 3 3 3 3 3
5 4 4 3 2 2 3 4 5 5 5 6 3 7 6 8 6 5 5 4 4 5 6 6 6 6 6 6 6 6 6 5 5 5 4 4 3 4 3 3 4 3 3 3
4 5 2 5 4 2 4 6 7 5 3 4 4 7 6 5 5 5 5 4 3 4 5 5 5 5 5 5 5 5 6 6 6 4 4 3 3 3 3 4 4 4 4 3
5 6 2 6 5 2 2 3 4 6 5 5 5 7 3 2 2 3 3 3 2 2 3 4 4 5 6 6 6 6 6 6 5 5 4 3 3 4 4 4 4 3 4 3
5 5 6 8 7 4 2 2 5 6 5 5 7 8 7 6 4 3 3 3 3 3 4 4 4 5 5 6 5 5 5 6 6 6 6 5 5 5 5 4 3 3 3 3
4 4 3 4 4 3 4 4 6 6 8 8 8 7 9 7 5 4 3 2 3 3 3 5 5 5 5 5 5 5 5 5 5 5 5 6 5 4 4 4 3 3 3 3
3 3 2 2 3 2 3 4 5 5 4 5 4 7 7 4 1 2 3 4 5 4 4 4 5 5 6 6 5 4 4 4 5 5 5 4 3 4 4 4 4 3 3 3
2 4 3 3 4 2 5 5 5 4 4 6 7 7 3 2 3 4 5 6 6 6 5 5 5 6 6 6 6 6 5 4 5 5 4 4 4 4 4 4 3 4 4 3
5 4 3 2 1 5 8 3 4 4 3 3 4 4 3 4 3 3 3 5 5 4 5 5 5 6 5 5 4 4 3 4 4 4 4 3 4 4 3 3 3 3 3 3
5 7 4 4 4 6 6 1 2 3 4 3 3 4 3 1 3 3 2 3 4 4 4 4 5 6 4 4 4 4 3 3 4 4 4 4 4 4 4 3 3 2 2 1
4 5 5 4 4 7 7 4 2 3 4 3 2 3 2 2 0 5 3 2 2 2 2 2 3 4 4 4 5 5 4 4 4 5 5 5 5 5 4 4 3 2 2 2
3 3 3 4 5 7 5 5 1 4 7 3 2 3 4 4 5 4 2 2 2 2 2 2 3 3 4 4 5 5 4 5 5 4 4 4 5 5 4 3 3 3 2 2
5 4 4 4 4 7 3 1 3 5 3 2 2 3 4 4 3 2 1 1 1 1 1 2 3 2 2 3 5 5 5 5 3 3 3 4 4 4 4 4 3 3 3 3
4 6 5 7 6 4 2 3 4 2 3 3 2 2 2 2 2 2 1 1 1 1 1 1 2 2 1 3 4 5 4 3 2 2 3 3 3 3 4 5 4 3 3 3
2 1 2 2 5 5 4 3 3 2 3 3 2 2 2 3 3 2 1 0 0 1 1 1 2 1 1 1 3 4 3 3 3 3 3 3 4 3 3 3 4 4 3 3
4 1 1 4 6 5 4 3 4 4 4 3 2 1 1 2 2 2 2 1 1 1 1 1 2 2 2 1 1 2 3 3 4 3 3 3 3 3 3 2 2 3 3 5
4 5 5 6 6 4 5 4 3 3 3 3 2 3 2 1 2 2 2 2 2 2 1 1 2 2 1 1 1 1 2 4 4 3 2 2 3 3 3 3 1 2 1 2
Wind_Direction
69 78 215 227 201 198 183 199 265 278 234 146 177 203 192 178 185 198 200 197 200 210 214 190 183 176 164 163 171 176 164 156 137 123 126 119 123 38 326 255 212 174 153 151
43 284 241 211 170 169 178 211 284 315 21 135 138 288 226 191 202 204 201 200 203 203 199 193 184 180 176 178 182 184 183 173 166 158 149 145 141 161 198 292 41 175 180 177
195 247 238 144 149 140 235 204 232 240 34 51 80 345 294 235 210 209 213 206 202 201 199 197 191 190 185 189 191 193 191 185 179 163 129 100 72 41 25 6 331 316 225 201
238 260 204 155 230 164 270 240 198 158 91 341 74 274 286 251 236 222 223 213 211 208 199 196 196 195 199 201 193 188 187 188 183 167 158 158 168 194 228 223 250 332 329 210
245 230 161 224 238 179 215 136 111 110 121 56 21 139 289 293 248 240 226 219 216 206 199 198 199 200 200 195 189 183 178 189 184 175 174 172 186 202 213 117 106 346 337 62
248 248 203 214 234 164 144 69 55 53 72 25 270 170 278 238 227 243 224 219 215 207 201 198 192 190 194 185 180 176 177 193 186 182 182 183 191 191 187 200 205 232 252 265
321 315 295 162 44 22 87 87 32 4 16 256 281 209 251 251 232 225 218 213 209 202 196 193 187 189 190 182 181 179 178 195 195 191 194 195 196 192 198 207 208 211 221 235
206 291 272 211 183 188 165 139 158 192 218 273 315 239 258 270 266 239 216 200 190 190 195 199 197 194 190 185 181 180 187 198 197 196 201 196 195 197 209 211 207 212 220 231
179 256 293 269 190 140 137 158 158 134 145 275 286 289 303 314 353 15 150 162 185 193 195 198 194 189 184 184 187 188 191 200 202 204 199 197 199 203 212 213 209 217 223 232
162 232 294 294 68 41 122 141 102 119 147 239 296 283 260 283 293 304 228 211 208 194 189 190 189 191 188 188 187 185 191 199 203 202 203 210 206 209 208 197 207 220 228 226
142 166 307 15 126 189 96 94 103 111 143 156 237 269 232 226 233 232 233 227 211 201 196 192 191 190 184 177 177 181 188 191 199 205 207 209 206 203 198 203 214 218 225 219
133 130 246 270 269 205 149 156 147 151 200 172 180 261 276 231 228 220 227 225 212 200 194 187 182 172 167 175 178 182 188 191 197 190 185 202 209 198 202 213 218 214 219 222
133 116 74 341 339 6 92 143 144 125 123 154 177 259 304 333 265 227 219 219 205 180 171 169 170 173 176 176 180 187 191 194 190 176 180 202 213 213 220 224 221 217 218 220
123 118 163 199 222 219 227 188 156 134 154 195 219 246 292 304 296 270 233 206 183 175 167 167 176 178 176 177 180 182 190 189 182 179 184 198 218 223 226 223 219 223 217 212
103 138 187 231 242 212 216 214 189 188 188 189 224 227 255 263 247 238 215 187 170 168 169 180 186 183 178 177 181 183 184 183 182 184 196 209 217 217 218 217 219 221 219 225
69 131 138 282 282 269 255 242 201 206 194 206 228 255 259 271 253 223 205 188 193 196 191 189 185 180 181 184 190 189 191 185 173 183 204 205 199 209 214 213 207 209 222 226
102 127 125 244 292 8 265 236 205 204 207 183 213 235 253 270 236 219 208 199 199 199 197 195 195 192 193 189 186 192 194 180 176 192 202 197 194 202 212 209 197 208 219 215
147 126 135 161 98 226 244 246 186 189 220 221 233 244 237 235 250 248 210 196 207 204 195 199 201 198 197 186 180 185 168 167 181 195 205 207 203 208 206 195 203 212 208 214
158 144 134 142 191 262 287 256 157 180 251 236 234 258 259 347 7 318 268 206 206 211 209 205 200 194 186 178 172 159 163 168 180 196 201 202 204 206 198 196 213 213 190 216
83 112 128 145 174 226 242 269 247 142 267 262 205 226 231 101 302 271 281 252 220 208 209 205 183 170 175 185 166 160 176 179 197 203 200 196 196 199 196 195 197 185 173 202
64 72 146 176 210 254 267 292 91 167 243 269 215 214 186 195 222 247 275 265 208 190 195 174 157 169 187 175 158 164 180 201 210 198 185 186 193 192 188 182 182 171 173 168
172 161 179 160 195 248 298 60 173 223 263 273 253 229 209 221 242 250 249 234 139 111 163 148 141 175 194 167 158 173 202 215 199 180 178 184 185 181 171 166 176 172 168 166
196 192 188 191 213 244 263 232 254 242 263 277 278 264 207 217 234 237 226 216 202 189 196 160 148 161 211 188 173 187 219 203 166 167 181 182 173 171 169 170 173 172 175 179
274 140 148 261 266 272 289 300 314 294 272 282 270 230 176 207 231 239 234 266 258 208 206 157 133 153 248 238 204 207 212 179 162 176 185 179 171 170 166 170 176 179 189 194
246 192 187 261 277 309 315 317 307 313 327 339 342 330 222 183 228 220 208 215 207 195 202 163 161 191 233 246 237 213 192 168 169 182 187 181 177 170 164 161 179 192 206 200
222 200 197 231 234 217 255 268 288 305 310 308 331 349 343 199 228 233 221 219 212 202 208 182 166 176 210 210 243 230 188 171 170 181 188 180 174 165 158 151 97 47 168 192
Height
1498 1503 1509 1506 1504 1505 1507 1512 1514 1508 1501 1505 1509 1510 1508 1509 1510 1511 1511 1513 1514 1516 1518 1521 1522 1524 1526 1527 1529 1530 1531 1532 1534 1535 1535 1536 1536 1537 1538 1538 1539 1539 1539 1539
1503 1506 1500 1498 1500 1503 1507 1512 1513 1507 1501 1505 1510 1511 1507 1507 1507 1508 1509 1511 1512 1515 1517 1519 1521 1523 1525 1526 1528 1530 1531 1532 1534 1535 1536 1536 1537 1537 1538 1538 1539 1539 1539 1540
1504 1501 1495 1497 1501 1505 1508 1511 1510 1510 1506 1507 1511 1516 1511 1507 1507 1508 1509 1509 1511 1512 1514 1517 1519 1521 1523 1525 1527 1529 1530 1532 1533 1534 1535 1536 1537 1537 1537 1538 1538 1539 1539 1540
1500 1496 1496 1498 1500 1502 1511 1502 1503 1506 1515 1523 1518 1533 1516 1509 1508 1506 1506 1507 1508 1510 1512 1514 1517 1519 1521 1523 1526 1528 1530 1531 1533 1534 1535 1536 1536 1536 1537 1538 1538 1539 1539 1540
1500 1495 1496 1499 1498 1498 1502 1499 1502 1507 1515 1525 1524 1531 1523 1511 1510 1505 1503 1504 1505 1507 1510 1512 1514 1516 1519 1522 1525 1527 1529 1531 1532 1533 1534 1535 1536 1536 1537 1538 1538 1538 1539 1539
1495 1492 1493 1494 1493 1494 1497 1503 1508 1517 1524 1537 1528 1532 1527 1514 1506 1501 1499 1500 1502 1504 1507 1509 1512 1515 1518 1520 1523 1525 1528 1529 1531 1532 1533 1534 1535 1536 1536 1537 1537 1538 1538 1538
1501 1495 1492 1491 1496 1497 1500 1517 1535 1537 1545 1542 1527 1529 1522 1501 1497 1495 1495 1497 1499 1502 1504 1507 1509 1512 1515 1518 1521 1523 1525 1527 1529 1530 1531 1532 1533 1534 1535 1536 1536 1536 1536 1536
1511 1511 1494 1491 1494 1500 1504 1513 1535 1545 1548 1541 1529 1529 1511 1495 1493 1492 1493 1494 1497 1499 1502 1504 1507 1510 1512 1515 1518 1520 1523 1525 1527 1528 1529 1530 1532 1533 1533 1534 1534 1535 1535 1535
1511 1509 1492 1489 1489 1494 1505 1514 1514 1532 1537 1542 1534 1521 1505 1493 1493 1492 1492 1493 1495 1497 1499 1502 1504 1507 1510 1513 1515 1518 1520 1522 1524 1525 1527 1528 1529 1530 1531 1532 1532 1532 1533 1533
1498 1506 1495 1491 1490 1494 1498 1508 1521 1532 1543 1546 1535 1526 1517 1500 1496 1493 1492 1492 1493 1495 1497 1500 1502 1505 1508 1511 1513 1516 1518 1520 1522 1524 1525 1526 1527 1528 1529 1529 1529 1530 1530 1530
1494 1505 1502 1497 1499 1501 1504 1510 1520 1531 1532 1543 1544 1529 1498 1496 1493 1492 1492 1492 1493 1494 1495 1498 1500 1503 1506 1509 1511 1514 1516 1518 1520 1522 1523 1524 1525 1525 1526 1526 1527 1527 1527 1527
1495 1506 1513 1504 1495 1493 1496 1504 1514 1524 1531 1536 1538 1525 1490 1489 1489 1489 1489 1490 1491 1492 1494 1496 1499 1502 1504 1507 1509 1511 1512 1514 1517 1518 1520 1521 1522 1523 1523 1523 1524 1524 1524 1524
1494 1507 1519 1515 1509 1500 1500 1502 1507 1516 1527 1536 1535 1519 1489 1488 1487 1487 1488 1489 1490 1491 1493 1495 1498 1500 1502 1504 1506 1508 1509 1510 1513 1515 1517 1518 1519 1520 1520 1521 1521 1521 1521 1521
1489 1504 1512 1517 1511 1503 1502 1501 1505 1512 1524 1528 1522 1510 1494 1490 1488 1487 1487 1488 1489 1490 1492 1494 1496 1498 1500 1502 1504 1505 1506 1508 1510 1512 1513 1514 1515 1516 1517 1518 1518 1519 1519 1519
1489 1502 1502 1501 1497 1497 1497 1498 1500 1504 1507 1513 1507 1505 1494 1489 1487 1486 1487 1488 1489 1489 1491 1492 1494 1496 1499 1500 1502 1503 1504 1506 1507 1509 1510 1510 1512 1513 1514 1515 1515 1516 1516 1516
1493 1500 1501 1501 1497 1496 1497 1494 1495 1497 1498 1501 1500 1499 1487 1486 1485 1485 1486 1486 1487 1488 1490 1491 1493 1495 1496 1498 1499 1501 1502 1503 1505 1506 1507 1508 1509 1509 1510 1511 1512 1512 1512 1512
1497 1501 1507 1510 1501 1498 1503 1494 1493 1493 1491 1494 1498 1492 1486 1486 1484 1484 1483 1484 1485 1487 1488 1490 1491 1492 1494 1495 1497 1498 1500 1501 1502 1503 1504 1505 1506 1506 1507 1508 1508 1508 1509 1509
1497 1503 1510 1512 1508 1514 1498 1485 1485 1488 1488 1488 1487 1485 1484 1484 1483 1483 1482 1483 1484 1485 1486 1488 1489 1491 1492 1493 1494 1496 1497 1498 1499 1499 1500 1501 1503 1503 1504 1504 1504 1504 1505 1505
1490 1499 1510 1516 1514 1507 1492 1484 1484 1488 1489 1484 1485 1483 1483 1482 1482 1482 1482 1482 1483 1484 1485 1486 1487 1488 1489 1490 1491 1493 1494 1495 1495 1496 1497 1498 1499 1500 1500 1500 1501 1501 1501 1502
1492 1495 1506 1512 1510 1511 1493 1481 1480 1484 1490 1482 1482 1482 1482 1482 1487 1483 1480 1480 1481 1482 1483 1484 1485 1486 1487 1488 1489 1490 1490 1491 1492 1492 1493 1494 1496 1496 1496 1497 1498 1498 1498 1498
1498 1502 1505 1508 1506 1499 1485 1480 1480 1494 1490 1480 1479 1479 1480 1480 1481 1479 1479 1478 1479 1480 1481 1482 1483 1484 1484 1485 1486 1486 1487 1487 1488 1489 1489 1490 1492 1493 1494 1494 1495 1495 1495 1496
1497 1501 1504 1507 1506 1500 1483 1481 1485 1484 1479 1478 1477 1477 1477 1477 1477 1476 1476 1477 1477 1478 1479 1479 1480 1481 1482 1483 1483 1483 1484 1484 1485 1485 1486 1487 1488 1489 1490 1491 1492 1492 1493 1493
1494 1493 1494 1495 1493 1484 1481 1481 1480 1479 1478 1477 1476 1476 1475 1475 1475 1474 1474 1475 1475 1476 1477 1478 1478 1479 1480 1480 1481 1481 1481 1482 1482 1483 1483 1484 1485 1486 1487 1487 1488 1489 1490 1490
1490 1488 1490 1490 1484 1481 1479 1479 1478 1478 1477 1475 1474 1474 1474 1473 1473 1473 1473 1473 1473 1474 1475 1476 1477 1477 1477 1478 1478 1479 1479 1480 1480 1480 1481 1481 1482 1483 1483 1484 1485 1486 1486 1487
1488 1488 1488 1487 1482 1479 1478 1477 1477 1476 1475 1474 1473 1473 1472 1471 1471 1472 1471 1471 1472 1472 1473 1474 1474 1475 1476 1476 1476 1477 1477 1477 1477 1477 1478 1479 1479 1480 1481 1482 1483 1483 1484 1485
1484 1485 1486 1484 1479 1479 1477 1476 1476 1475 1474 1473 1472 1471 1471 1471 1470 1470 1470 1470 1470 1471 1471 1472 1472 1473 1473 1474 1474 1475 1475 1475 1475 1475 1475 1476 1477 1478 1479 1479 1480 1481 1482 1482